User: anonymous   Login
Location: Unspecified
(0.0000°N, 0.0000°E)
Time: 23:39:34
(UTC+00:00)
Language:

OPTUS D1 - Orbit

View from above orbital plane
View from above orbital plane
View from above satellite
View from above satellite

Ground track
Ground track

The orbit data is extracted from the following two-line orbital elements,

1 29495U 06043B   14303.77816708 -.00000122  00000-0  10000-3 0  6242
2 29495 000.0472 064.7002 0003243 135.5408 278.9419 01.00271444 29555
Epoch (UTC): 30 October 2014 18:40:33
Eccentricity: 0.0003243
inclination: 0.0472°
perigee height: 35772 km
apogee height: 35800 km
right ascension of ascending node: 64.7002°
argument of perigee: 135.5408°
revolutions per day: 1.00271444
mean anomaly at epoch: 278.9419°
orbit number at epoch: 2955

The dashed part of the orbit path shows where the satellite is in the earth's shadow,  

DLR